Regional Weather Roundup
Issued by NWS Bismarck, ND

Home | Current Version | Previous Version | Text Only | Print | Product List | Glossary On
Versions: 1 2 3 4 5 6 7 8 9 10 11 12 13 14 15 16 17 18 19 20 21 22 23 24 25 26 27 28 29 30 31 32 33 34 35 36 37 38 39 40 41 42 43 44 45 46 47 48 49 50
000
ASUS43 KBIS 161459
RWRBIS

NWR BROADCAST TEXT
NATIONAL WEATHER SERVICE BISMARCK ND
1000 AM CDT WED APR 16 2014

NOTE: "FAIR" INDICATES FEW OR NO CLOUDS BELOW 12,000 FEET WITH NO
SIGNIFICANT WEATHER AND/OR OBSTRUCTIONS TO VISIBILITY.


CITY           SKY/WX    TMP DP  RH WIND       PRES   REMARKS
WILLISTON      CLOUDY    26  21  81 E14       30.08R WCI  14
MINOT          CLOUDY    23  18  81 NE13      30.10R WCI  11
MINOT AFB      NOT AVBL
BISMARCK       CLOUDY    28  23  81 E17       30.01R WCI  16
DICKINSON      NOT AVBL
GARRISON         N/A     25  20  81 E14G24    30.04R WCI  13
HETTINGER ARPT PTSUNNY   27  19  72 NE17      29.94R WCI  14
JAMESTOWN      NOT AVBL
CARRINGTON     MIX PCPN  25  23  93 NE17      30.05R WCI  11
CROSBY         FLURRIES  21  19  93 E17       30.13R WCI   7
HARVEY         CLOUDY    25  19  80 E17       30.06R WCI  11
HAZEN          CLOUDY    27  19  74 NE15      30.04R WCI  15
LINTON         CLOUDY    28  25  86 E17G25    29.95R WCI  16
OAKES          CLOUDY    28  25  86 NE20G29   29.94R WCI  15
RUGBY          PTSUNNY   25  16  68 NE20G30   30.10R WCI  11
WATFORD CITY   CLOUDY    25  19  80 E13       30.04R WCI  13
$$

CITY           SKY/WX    TMP DP  RH WIND       PRES   REMARKS
GRAND FORKS    PTSUNNY   33  11  39 NE15      30.07R
GRAND FORKS AF NOT AVBL
DEVILS LAKE    PTSUNNY   28  10  47 E20       30.08S WCI  15
FARGO          CLOUDY    29  22  75 NE15      30.03R WCI  18
CANDO          CLOUDY    28  10  47 NE17      30.11F WCI  16
CAVALIER       FAIR      28  10  47 NE14G20   30.18S WCI  17
GRAFTON        FAIR      32  10  40 E17       30.15R
GWINNER        CLOUDY    32  28  86 NE18G24   29.96R
LANGDON        FAIR      28   9  43 E20       30.12R WCI  15
WALHALLA         N/A     28   9  43 NE12      30.19S WCI  18
$$

CITY           SKY/WX    TMP DP  RH WIND       PRES   REMARKS
ABERDEEN       CLOUDY    28  25  88 NE20G29   29.89R WCI  15
MOBRIDGE       CLOUDY    29  23  78 NE20      29.88R WCI  16
RAPID CITY     LGT RAIN  34  31  88 N24G30    29.83R
GLASGOW        CLOUDY    29  22  75 NE9       30.05R
SIDNEY         CLOUDY    28  21  74 E10       30.06R WCI  19
WOLF POINT     CLOUDY    30  20  66 NE12      30.07R
GLENDIVE       CLOUDY    28  19  69 NE10      30.02R WCI  19
MILES CITY     MOSUNNY   33  21  61 N7        29.99R
BAKER          MOSUNNY   29  19  66 E9        29.96R
$$

CITY           SKY/WX    TMP DP  RH WIND       PRES   REMARKS
BILLINGS       PTSUNNY   40  30  67 VRB3      29.97R
GREAT FALLS    CLOUDY    34  31  88 N3        29.96R
$$




USA.gov is the U.S. government's official web portal to all federal, state and local government web resources and services.